Flag for Vietnam Weather past 2 weeks in Da Nang, Vietnam

Now
81 °F

Passing clouds.


Feels Like: 86 °F
Forecast: 76 / 87 °F
Wind: 1 mph from West

Location: Da Nang Airport

Current Time: Apr 26, 2015 at 11:30:50 PM

Latest Report: Apr 26, 2015 at 10:30 PM


Visibility: 4 mi

Pressure: 29.98 "Hg

Humidity: 84%

Dew point: 75 °F

Location of Da NangLocation

Historic Weather in Da Nang — Graph

°F

Da Nang temperature yesterday

Maximum temperature yesterday: 88 °F (at 12:00 PM)
Minimum temperature yesterday: 79 °F (at 2:00 AM)
Average temperature yesterday: 82 °F

Past Weeks' High & Low Weather Summary

 TemperatureHumidityPressure
High104 °F (Apr 20, 12:30 PM)100% (Apr 12, 5:00 AM)30.12 "Hg (Apr 12, 5:00 AM)
Low66 °F (Apr 14, 3:00 AM)45% (Apr 20, 11:00 AM)29.65 "Hg (Apr 20, 4:00 PM)
Average81 °F81%29.92 "Hg
* Reported Apr 11 10:00 PM — Apr 26 10:30 PM, Da Nang, Weather by CustomWeather, © 2015

Note: Actual official high and low records may vary slightly from our data, if they occured in-between our weather recording intervals... More about our weather records

Advertising

Da Nang weather history for previous 24 hours

 ConditionsComfort  
Time TempWeatherWind HumidityBarometerVisibility
10:30 PM
Sun, Apr 26
81 °FPassing clouds.1 mph84%29.98 "Hg4 mi
10:00 PM82 °FPassing clouds.2 mph79%29.98 "Hg4 mi
9:30 PM82 °FPassing clouds.1 mph79%29.98 "Hg4 mi
9:00 PM82 °FPassing clouds.3 mph79%29.98 "Hg4 mi
8:30 PM82 °FPassing clouds.5 mph79%29.95 "Hg4 mi
8:00 PM82 °FPassing clouds.2 mph79%29.95 "Hg4 mi
7:30 PM82 °FPassing clouds.3 mph79%29.95 "Hg4 mi
7:00 PM82 °FPassing clouds.5 mph79%29.95 "Hg4 mi
6:30 PM82 °FPassing clouds.6 mph79%29.92 "Hg4 mi
6:00 PM82 °FPassing clouds.7 mph79%29.92 "Hg5 mi
5:30 PM82 °FPassing clouds.7 mph79%29.92 "Hg5 mi
5:00 PM84 °FPassing clouds.7 mph74%29.92 "Hg5 mi
4:30 PM86 °FPassing clouds.8 mph66%29.92 "Hg5 mi
4:00 PM86 °FPassing clouds.8 mph66%29.92 "Hg5 mi
3:30 PM86 °FPassing clouds.9 mph66%29.92 "Hg5 mi
3:00 PM88 °FPassing clouds.8 mph66%29.92 "Hg5 mi
2:30 PM88 °FPassing clouds.8 mph62%29.95 "Hg5 mi
2:00 PM88 °FPassing clouds.9 mph66%29.95 "Hg5 mi
1:30 PM88 °FPassing clouds.9 mph66%29.95 "Hg5 mi
1:00 PM88 °FPassing clouds.9 mph66%29.98 "Hg5 mi
12:30 PM88 °FPassing clouds.10 mph66%29.98 "Hg5 mi
12:00 PM88 °FPassing clouds.10 mph70%30.01 "Hg5 mi
11:30 AM88 °FScattered clouds.8 mph70%30.01 "Hg5 mi
11:00 AM88 °FScattered clouds.8 mph70%30.04 "Hg5 mi
10:30 AM88 °FScattered clouds.9 mph70%30.04 "Hg5 mi
10:00 AM88 °FScattered clouds.8 mph66%30.04 "Hg5 mi
9:30 AM86 °FScattered clouds.9 mph75%30.04 "Hg4 mi
9:00 AM86 °FScattered clouds.9 mph75%30.04 "Hg4 mi
8:30 AM86 °FScattered clouds.9 mph75%30.04 "Hg4 mi
8:00 AM84 °FScattered clouds.9 mph74%30.01 "Hg4 mi
7:30 AM84 °FScattered clouds.8 mph79%30.01 "Hg4 mi
7:00 AM82 °FScattered clouds.6 mph79%30.01 "Hg4 mi
6:30 AM82 °FFog.6 mph79%30.01 "Hg3 mi
6:00 AM81 °FFog.6 mph84%29.98 "Hg3 mi
5:30 AM81 °FFog.5 mph89%29.98 "Hg3 mi
5:00 AM81 °FFog.6 mph89%29.95 "Hg3 mi
4:00 AM81 °FFog.3 mph89%29.95 "Hg3 mi
3:30 AM81 °FFog.1 mph89%29.95 "Hg3 mi
3:00 AM81 °FFog.2 mph89%29.95 "Hg3 mi
2:30 AM81 °FFog.1 mph89%29.95 "Hg3 mi
2:00 AM81 °FFog.1 mph89%29.95 "Hg3 mi
1:30 AM81 °FFog.2 mph89%29.95 "Hg3 mi
1:00 AM81 °FFog.3 mph89%29.95 "Hg3 mi
12:30 AM81 °FFog.3 mph89%29.95 "Hg3 mi
12:00 AM81 °FFog.2 mph89%29.98 "Hg3 mi
11:30 PM
Sat, Apr 25
81 °FFog.5 mph89%29.98 "Hg3 mi
11:00 PM82 °FFog.5 mph84%29.98 "Hg3 mi
Weather by CustomWeather, © 2015

See weather overviewHow to use our weather pages